Temperature
7 8 8 7 7 7 6 6 6 7 8 9 9 9 10 10 9 9 8 8 7 7 6 6 6 5 5 5 5 4 4 4 3 3 3 3 3 3 3 3 3 2 2 2
6 7 7 6 7 7 6 7 7 7 7 9 10 10 9 9 8 8 8 7 7 6 6 6 5 5 5 5 4 4 4 3 3 3 3 3 3 2 2 2 2 2 2 2
5 7 6 5 7 7 7 7 7 6 7 9 8 8 8 8 8 7 7 7 6 6 5 5 5 5 5 4 4 4 3 3 3 3 2 2 2 2 2 2 2 2 2 2
5 5 5 8 9 9 8 8 8 7 8 8 8 8 8 8 7 7 6 6 6 5 5 5 5 4 4 4 4 3 3 3 3 2 2 2 2 2 2 2 1 1 1 1
4 5 6 8 8 8 7 7 7 7 7 8 8 7 7 7 7 6 6 5 5 5 5 5 4 4 4 3 3 3 3 3 2 2 2 2 2 2 1 1 1 1 1 1
4 4 5 8 7 8 7 6 7 7 7 7 7 5 5 6 6 6 5 5 5 5 5 4 4 4 3 3 3 3 3 2 2 2 2 2 1 1 1 1 1 1 1 1
3 4 5 7 7 7 6 6 7 7 7 7 6 5 6 6 5 5 5 5 4 4 4 4 4 3 3 3 3 3 2 2 2 2 1 1 1 1 1 1 0 1 1 1
3 3 5 6 6 5 6 7 7 7 6 6 6 6 5 5 5 4 4 4 4 4 4 3 3 3 3 3 3 2 2 2 2 1 1 1 1 1 0 0 0 0 0 0
4 5 7 7 7 7 7 7 6 6 6 5 5 5 5 4 4 4 4 4 3 3 3 3 3 3 3 3 2 2 2 2 1 1 1 1 0 0 -0 -0 -0 -0 -0 -0
5 5 7 7 7 7 7 6 6 6 5 5 5 4 4 4 4 3 3 3 3 3 2 3 3 3 2 2 2 2 2 1 1 1 1 1 0 -0 -0 -0 -0 -0 -1 -1
4 5 6 7 7 7 6 6 5 5 5 4 4 4 3 3 3 3 3 2 2 2 2 2 2 2 2 2 2 2 1 1 1 1 0 0 0 -0 -0 -0 -1 -1 -1 -1
4 5 5 6 6 6 5 5 4 4 4 4 4 3 3 3 3 2 2 2 2 2 2 2 2 2 2 2 2 1 1 1 1 0 0 0 -0 -0 -0 -1 -1 -1 -1 -1
6 6 6 5 5 5 5 4 4 4 3 3 3 3 3 2 2 2 2 2 2 2 2 2 1 1 1 1 1 1 1 1 0 0 0 -0 -0 -0 -0 -0 -1 -1 -1 -1
5 5 4 4 4 4 4 3 3 3 3 3 3 2 2 2 2 1 1 1 1 1 1 1 1 1 1 1 1 1 1 0 0 -0 -0 -0 -1 -1 -1 -1 -1 -1 -1 -1
4 4 3 3 3 3 3 3 3 2 2 2 2 2 2 1 1 1 1 1 1 1 1 1 1 1 1 1 1 1 0 0 -0 -0 -1 -1 -1 -1 -1 -1 -1 -1 -2 -2
2 2 2 2 2 2 2 2 2 2 2 2 2 1 1 1 1 1 1 1 1 1 1 1 1 1 1 1 0 0 0 0 -0 -1 -1 -1 -1 -1 -2 -2 -2 -2 -2 -2
1 1 1 1 1 1 2 2 2 1 1 1 1 1 1 0 0 0 1 1 1 1 1 1 1 1 1 0 0 0 -0 -0 -1 -1 -1 -1 -1 -2 -2 -2 -2 -2 -2 -3
1 1 1 1 1 1 1 1 1 1 1 1 0 0 0 -0 0 0 0 0 0 0 0 0 0 0 0 0 -0 -0 -1 -1 -1 -1 -2 -2 -2 -2 -2 -2 -3 -3 -3 -3
1 1 1 1 1 1 1 1 1 1 0 0 0 -0 -0 -0 -0 -0 -0 -0 -0 -0 0 0 -0 -0 -0 -0 -1 -1 -1 -1 -2 -2 -2 -2 -2 -3 -3 -3 -3 -3 -3 -3
0 0 0 0 0 0 0 0 0 -0 -0 -0 -0 -1 -1 -0 -0 -1 -1 -1 -0 -0 -0 -0 -0 -1 -1 -1 -1 -1 -2 -2 -2 -2 -3 -3 -3 -3 -3 -3 -3 -4 -4 -4
0 0 -0 -0 -0 -0 -0 -0 -0 -0 -0 -1 -1 -1 -1 -1 -1 -1 -1 -1 -0 -1 -1 -1 -1 -1 -1 -1 -2 -2 -2 -2 -3 -3 -3 -3 -3 -4 -4 -4 -4 -4 -4 -4
-0 -0 -0 -0 -1 -1 -0 -1 -1 -1 -1 -1 -1 -1 -1 -1 -1 -1 -1 -1 -1 -1 -1 -1 -1 -1 -2 -2 -2 -2 -3 -3 -3 -3 -4 -4 -4 -4 -4 -4 -4 -4 -4 -5
-0 -0 -1 -1 -1 -1 -1 -1 -1 -1 -1 -1 -1 -1 -1 -2 -2 -2 -2 -1 -2 -2 -2 -2 -2 -2 -2 -3 -3 -3 -3 -3 -4 -4 -4 -4 -4 -4 -4 -4 -5 -5 -5 -5
-1 -1 -1 -1 -1 -1 -1 -1 -1 -2 -2 -2 -2 -2 -2 -2 -2 -2 -2 -2 -2 -2 -2 -2 -2 -2 -3 -3 -3 -3 -3 -4 -4 -4 -4 -4 -4 -5 -5 -5 -5 -5 -5 -6
-1 -1 -1 -1 -2 -2 -2 -2 -2 -2 -2 -2 -2 -2 -2 -2 -2 -2 -2 -2 -2 -2 -2 -3 -3 -3 -3 -3 -4 -4 -4 -4 -4 -4 -4 -5 -5 -5 -5 -5 -6 -6 -6 -6
-1 -1 -2 -2 -2 -2 -2 -2 -2 -2 -2 -2 -2 -2 -2 -2 -2 -3 -3 -3 -3 -3 -3 -3 -3 -3 -4 -4 -4 -4 -4 -4 -5 -5 -5 -5 -5 -5 -5 -6 -6 -6 -6 -6
-2 -2 -2 -2 -2 -2 -2 -2 -3 -3 -3 -3 -3 -2 -2 -3 -3 -3 -3 -3 -3 -3 -3 -3 -3 -4 -4 -4 -4 -4 -5 -5 -5 -5 -5 -5 -5 -6 -6 -6 -6 -6 -6 -7
Wind_Speed
10 11 10 11 12 10 12 11 10 9 11 11 8 6 5 3 3 3 3 3 3 3 4 4 4 4 4 4 3 3 3 3 3 3 3 3 4 4 4 3 3 3 4 4
8 10 11 14 14 15 14 14 15 15 17 12 8 5 4 3 3 4 4 4 4 4 4 4 4 4 4 4 3 3 3 3 3 2 3 3 4 4 3 3 3 3 3 3
5 5 7 10 12 14 9 9 10 14 13 6 5 4 4 3 4 4 4 4 4 4 4 4 4 4 4 4 3 3 3 3 3 3 3 3 3 3 3 3 3 3 3 3
5 5 8 7 1 4 8 9 10 9 8 6 5 4 3 3 3 4 4 4 4 4 3 3 3 3 4 3 3 4 4 3 3 3 3 3 3 4 3 3 3 3 3 3
3 6 9 6 3 2 4 5 6 8 8 6 2 3 3 2 1 2 4 4 4 3 3 3 3 3 3 4 4 4 4 4 4 3 3 3 3 4 3 2 3 3 2 2
5 5 7 3 2 3 1 5 3 2 3 2 1 3 4 1 2 3 4 3 4 3 3 3 4 3 4 5 5 6 5 5 4 3 3 3 4 3 2 2 3 2 2 2
9 7 8 4 4 4 2 4 1 2 3 2 3 4 4 4 4 4 4 4 4 4 4 4 4 4 5 5 6 6 4 3 3 3 4 3 3 2 2 2 2 2 2 3
7 7 9 4 5 5 5 2 2 3 3 4 5 5 5 5 5 5 5 5 4 4 5 4 4 5 6 6 5 4 3 4 4 4 3 3 3 3 2 2 2 2 2 2
8 9 5 5 5 5 3 4 4 4 4 5 6 7 7 6 6 6 6 5 4 5 5 5 5 5 6 6 4 4 4 4 4 4 3 3 3 3 2 2 2 2 2 2
7 9 7 7 6 6 5 5 5 5 5 6 7 8 7 7 6 6 6 5 5 5 6 5 5 5 6 5 4 4 5 4 4 4 3 3 3 3 2 3 3 3 3 3
11 10 9 9 7 6 5 4 5 6 6 6 7 8 7 7 6 6 5 5 5 5 6 6 5 5 5 4 4 5 5 4 4 4 4 3 3 3 4 4 4 4 3 3
13 9 8 8 6 5 6 7 7 7 7 7 6 7 7 7 6 6 6 5 5 6 6 6 5 5 4 4 5 5 5 4 4 3 3 3 3 3 4 4 4 5 4 3
12 10 9 10 8 7 7 6 6 6 7 7 6 6 7 6 5 5 6 5 5 6 6 5 5 5 4 4 5 6 5 5 4 4 4 3 3 3 3 3 5 6 6 5
10 9 10 9 8 6 6 6 5 6 6 6 6 6 6 6 6 6 6 6 5 5 5 5 5 6 4 4 5 6 5 5 4 4 4 4 4 3 3 3 2 3 5 7
8 7 8 7 6 6 5 5 5 6 6 6 5 5 5 6 7 7 6 5 4 5 6 5 5 6 4 5 6 6 5 4 4 4 3 4 3 3 3 3 3 3 2 3
6 5 6 6 7 6 6 6 6 7 6 6 6 6 6 6 7 6 5 4 5 6 6 5 6 5 4 5 5 5 5 7 5 4 4 3 3 4 4 4 4 3 3 3
4 5 5 6 7 7 7 7 7 6 6 6 6 6 6 6 7 7 6 5 5 6 6 5 6 5 4 5 5 5 4 5 6 4 4 4 4 4 4 4 4 4 4 4
5 6 6 6 7 8 8 7 6 6 6 6 6 6 6 7 8 7 6 5 5 5 5 5 5 4 4 5 4 4 4 4 4 4 4 4 4 4 4 4 4 4 3 3
5 5 6 6 7 7 7 7 6 6 6 5 5 6 7 8 7 7 5 5 5 6 6 4 5 3 4 5 5 4 4 4 4 4 4 6 5 4 4 4 4 4 4 3
5 5 5 6 6 6 6 6 5 5 5 5 6 6 7 7 6 5 5 6 6 5 4 4 4 3 4 4 5 4 4 5 5 4 4 4 5 5 4 5 5 4 4 4
6 6 6 6 6 6 6 5 5 6 6 5 6 7 7 7 6 5 5 6 6 4 4 5 3 3 3 4 5 4 4 5 5 5 5 5 5 5 5 5 5 5 4 4
6 6 7 7 6 7 6 5 5 6 6 6 6 6 6 6 6 5 6 6 5 5 3 3 3 4 5 4 3 4 4 5 5 5 5 5 5 5 5 5 5 5 4 4
7 7 7 7 7 7 7 6 6 6 7 7 7 7 7 6 5 5 6 5 4 5 3 3 5 6 6 4 3 4 5 5 5 5 5 5 5 5 5 5 5 4 4 4
8 8 8 8 7 7 9 9 7 7 7 7 7 7 6 5 5 5 5 6 6 6 4 5 7 7 6 3 3 4 4 4 4 4 4 4 4 4 4 4 4 4 4 5
8 8 8 8 8 8 8 7 7 7 7 6 6 6 5 5 6 5 4 5 6 6 4 6 8 7 4 3 4 4 4 5 5 4 4 4 4 4 4 4 4 4 4 4
9 8 8 9 8 7 6 6 6 6 6 6 6 5 4 4 5 4 4 4 6 6 5 4 4 4 3 4 4 4 4 4 5 5 4 4 5 5 4 5 5 5 5 5
8 8 7 7 7 6 6 6 7 7 7 7 7 5 4 4 4 4 4 4 4 4 4 4 3 3 3 4 4 4 4 4 4 4 4 4 4 5 5 5 4 4 4 4
Wind_Direction
267 277 275 262 253 237 232 230 237 254 260 269 276 281 279 263 263 270 266 254 246 246 240 231 222 213 208 206 198 204 220 239 255 265 277 293 296 298 302 301 305 306 308 308
273 258 258 263 253 243 242 242 247 262 271 270 276 274 273 272 271 273 272 269 266 262 260 249 238 226 214 208 203 201 220 237 253 263 276 282 289 299 295 293 297 300 305 311
269 278 295 265 242 227 223 223 227 244 253 271 275 269 266 271 275 271 272 272 268 260 256 257 242 223 215 210 202 204 220 235 243 252 265 272 287 299 283 280 289 297 301 305
277 299 253 242 203 202 222 237 232 246 261 269 271 280 287 278 278 285 286 281 271 260 256 253 242 223 208 197 201 211 222 235 241 250 262 271 280 286 276 279 276 284 292 297
253 265 273 264 231 202 230 265 244 248 262 274 311 319 289 255 254 287 290 284 274 267 262 247 234 217 200 203 207 213 225 233 236 241 254 264 271 274 265 270 275 277 283 292
241 251 255 261 111 79 61 272 296 290 284 297 317 283 274 330 321 296 293 288 282 275 266 251 238 210 201 210 213 220 225 228 231 231 238 250 260 262 254 258 261 267 278 280
235 249 263 264 141 122 193 248 4 358 313 297 255 252 280 311 302 283 278 277 275 267 256 246 236 214 214 220 226 226 216 213 222 227 233 244 253 258 247 243 253 257 266 273
207 228 251 192 147 195 235 288 302 302 300 291 285 288 294 298 293 288 281 275 268 263 258 248 230 217 224 232 231 213 202 209 219 223 229 236 240 247 232 218 234 253 259 271
210 226 248 190 218 247 282 288 288 291 296 284 283 285 285 284 283 279 275 272 268 262 263 253 233 216 227 236 217 202 202 212 220 219 221 221 225 238 239 220 222 243 247 255
262 261 267 265 264 267 267 273 285 286 283 279 275 279 283 283 282 279 275 271 269 266 264 260 244 228 229 226 201 197 209 216 214 214 225 224 226 229 229 224 223 230 237 244
264 272 280 267 261 267 277 281 283 282 275 271 273 276 279 283 283 282 280 275 264 260 261 261 254 240 227 210 191 200 212 217 217 216 219 223 225 232 231 231 224 221 226 225
260 264 265 275 280 282 275 268 265 268 275 272 264 268 273 276 277 279 279 276 271 267 265 262 256 249 231 207 194 199 214 217 213 212 215 218 221 248 251 240 248 240 235 232
264 271 271 276 277 278 272 268 263 263 267 273 269 264 269 274 275 276 275 272 269 270 269 266 259 252 236 206 195 202 213 216 212 211 213 214 216 223 252 261 254 253 249 251
265 270 272 271 274 277 273 271 267 267 266 266 269 271 271 273 277 275 274 271 270 272 271 261 255 249 234 205 198 207 212 215 213 212 212 212 216 221 227 237 250 260 252 249
266 268 271 280 282 282 277 271 270 268 267 268 264 265 267 271 274 273 274 275 275 272 268 260 256 253 233 207 203 208 209 211 212 211 210 211 213 216 221 232 241 250 252 251
274 277 274 272 274 277 274 268 266 270 271 270 270 269 268 267 271 274 272 264 263 266 265 261 259 256 233 211 207 210 214 219 212 206 208 210 210 214 220 226 233 237 241 240
272 272 268 271 271 271 267 263 262 266 270 271 272 275 277 276 276 274 271 266 261 263 262 258 261 257 234 215 208 212 212 216 213 209 210 211 212 215 219 223 230 236 241 235
255 258 257 260 266 271 272 269 264 263 264 268 272 274 270 266 266 271 274 276 275 275 268 258 253 245 231 219 211 211 208 208 207 211 213 213 217 216 218 222 228 235 245 248
276 271 272 274 275 274 271 272 272 270 270 267 265 265 264 262 261 266 268 265 261 269 272 258 249 236 231 225 216 210 208 209 212 215 214 223 227 219 218 223 228 229 230 232
281 279 278 280 283 280 278 279 276 274 271 265 264 267 271 269 263 260 260 257 252 247 249 252 252 243 234 227 217 206 204 207 212 215 214 215 218 221 220 224 227 228 228 229
279 280 280 279 282 281 275 271 270 271 271 264 261 264 268 271 265 255 253 267 268 243 239 244 240 238 234 226 217 207 205 207 210 213 215 217 219 221 221 222 225 228 230 232
280 279 279 279 279 283 280 272 267 268 271 269 266 264 265 267 266 263 254 251 257 245 239 237 237 238 238 236 217 213 212 213 215 215 216 216 217 221 224 223 225 228 228 230
279 275 276 277 275 278 280 275 269 266 266 265 261 259 257 257 252 254 268 254 235 235 233 236 240 244 248 241 219 216 216 217 218 218 218 219 219 220 224 225 226 225 225 227
276 275 274 274 273 273 274 274 269 267 263 262 258 253 250 257 263 251 246 247 240 242 239 240 245 248 251 234 217 215 218 220 221 219 217 217 220 222 224 224 227 228 227 226
271 270 270 269 268 267 265 266 269 268 263 262 261 256 248 242 247 252 240 236 236 242 244 243 244 246 242 224 216 216 218 223 223 219 217 219 222 225 227 226 227 228 229 230
265 265 265 262 260 262 262 260 263 263 259 263 267 261 253 247 242 242 238 234 233 238 239 239 236 237 229 222 220 219 220 227 233 230 222 221 223 227 228 227 225 228 230 231
263 263 265 267 264 256 253 252 254 257 253 252 262 259 247 243 240 236 235 234 232 232 233 233 229 228 227 224 222 222 221 221 221 222 223 225 226 228 227 225 229 231 227 227
Height
1496 1492 1491 1491 1491 1491 1493 1491 1491 1479 1474 1467 1466 1466 1465 1465 1465 1465 1465 1464 1464 1463 1463 1462 1461 1460 1460 1459 1458 1458 1456 1455 1454 1452 1451 1449 1447 1445 1443 1442 1440 1439 1438 1437
1496 1489 1488 1486 1482 1482 1482 1481 1479 1475 1470 1463 1463 1462 1462 1462 1462 1462 1461 1461 1461 1460 1459 1458 1457 1456 1455 1455 1454 1453 1452 1451 1450 1449 1447 1445 1444 1442 1440 1439 1437 1436 1435 1434
1495 1485 1486 1483 1470 1470 1471 1468 1470 1470 1464 1460 1460 1460 1459 1459 1459 1459 1458 1458 1457 1456 1455 1454 1453 1452 1451 1451 1450 1449 1448 1447 1446 1445 1443 1442 1440 1438 1437 1436 1434 1433 1432 1431
1496 1491 1490 1467 1459 1458 1461 1460 1460 1459 1457 1457 1457 1457 1457 1456 1456 1456 1455 1454 1453 1452 1451 1450 1449 1448 1447 1446 1446 1445 1444 1443 1442 1441 1439 1438 1436 1435 1434 1433 1432 1430 1429 1428
1495 1490 1476 1462 1458 1458 1460 1459 1455 1455 1454 1454 1454 1454 1454 1454 1453 1453 1452 1451 1450 1448 1447 1446 1445 1444 1443 1442 1441 1441 1440 1439 1438 1437 1436 1434 1432 1431 1430 1430 1429 1427 1426 1425
1492 1489 1480 1460 1458 1456 1459 1461 1453 1452 1452 1452 1453 1456 1453 1451 1450 1449 1448 1447 1445 1444 1443 1442 1440 1440 1439 1438 1437 1436 1436 1435 1434 1433 1432 1430 1429 1428 1427 1427 1426 1425 1424 1423
1491 1485 1470 1458 1456 1458 1464 1458 1452 1451 1451 1451 1451 1451 1450 1448 1447 1446 1444 1443 1441 1440 1438 1437 1436 1435 1434 1433 1432 1432 1431 1431 1430 1429 1428 1427 1426 1425 1424 1423 1423 1422 1421 1421
1483 1482 1470 1455 1456 1458 1455 1451 1450 1449 1449 1449 1448 1447 1445 1444 1443 1441 1440 1438 1437 1435 1433 1432 1432 1431 1429 1429 1428 1428 1427 1426 1426 1425 1424 1423 1422 1421 1421 1420 1420 1419 1419 1418
1467 1461 1452 1451 1450 1450 1449 1448 1447 1446 1446 1445 1444 1442 1441 1440 1438 1437 1435 1434 1432 1430 1428 1427 1427 1426 1425 1425 1424 1423 1423 1422 1422 1421 1420 1420 1419 1418 1418 1417 1417 1416 1416 1415
1457 1450 1448 1447 1446 1446 1446 1445 1444 1443 1442 1441 1439 1438 1436 1435 1433 1432 1430 1428 1427 1425 1423 1422 1422 1421 1421 1420 1420 1419 1418 1418 1417 1417 1416 1416 1415 1415 1414 1414 1414 1413 1413 1412
1452 1447 1445 1443 1442 1442 1441 1440 1440 1439 1438 1437 1435 1433 1432 1430 1428 1426 1425 1423 1422 1420 1418 1417 1417 1416 1416 1416 1415 1414 1414 1413 1413 1413 1412 1412 1412 1412 1411 1411 1411 1411 1410 1410
1446 1442 1441 1438 1438 1438 1436 1435 1435 1434 1432 1431 1431 1429 1427 1425 1423 1421 1420 1418 1416 1415 1414 1413 1412 1411 1411 1411 1410 1410 1409 1409 1409 1409 1409 1408 1408 1408 1408 1408 1408 1407 1407 1407
1437 1436 1435 1433 1432 1432 1431 1430 1429 1428 1427 1426 1425 1424 1422 1420 1418 1417 1415 1413 1412 1410 1409 1408 1407 1406 1406 1406 1406 1405 1405 1405 1405 1405 1405 1405 1405 1404 1404 1404 1404 1404 1403 1403
1432 1431 1428 1427 1426 1426 1425 1424 1423 1422 1422 1421 1419 1418 1416 1414 1413 1411 1410 1408 1407 1406 1404 1403 1403 1402 1402 1401 1401 1401 1401 1401 1401 1401 1401 1401 1401 1401 1401 1400 1400 1400 1400 1400
1425 1424 1423 1422 1421 1420 1419 1419 1418 1417 1416 1415 1414 1413 1411 1409 1408 1406 1405 1403 1402 1401 1400 1399 1398 1397 1397 1397 1397 1397 1397 1397 1397 1397 1397 1398 1398 1398 1397 1397 1397 1396 1396 1396
1420 1419 1418 1417 1416 1415 1415 1414 1413 1411 1411 1410 1408 1407 1406 1404 1403 1401 1400 1399 1397 1396 1395 1394 1393 1393 1393 1392 1392 1392 1392 1392 1393 1393 1393 1393 1394 1394 1393 1393 1393 1392 1392 1392
1415 1413 1413 1412 1411 1410 1410 1409 1408 1407 1406 1404 1403 1402 1400 1399 1397 1396 1395 1394 1393 1391 1391 1390 1389 1388 1388 1387 1387 1387 1387 1388 1388 1388 1388 1389 1389 1389 1389 1389 1389 1388 1388 1388
1410 1410 1409 1408 1406 1405 1404 1403 1403 1401 1400 1399 1398 1396 1395 1393 1392 1390 1389 1388 1387 1387 1386 1385 1384 1383 1383 1383 1383 1383 1383 1383 1383 1383 1384 1384 1384 1385 1385 1385 1385 1384 1384 1384
1406 1405 1404 1403 1402 1401 1399 1398 1397 1396 1395 1394 1392 1390 1389 1388 1387 1385 1384 1383 1382 1381 1380 1380 1379 1379 1378 1378 1378 1378 1378 1378 1378 1378 1379 1379 1380 1380 1380 1380 1380 1380 1380 1380
1402 1401 1400 1399 1397 1396 1394 1393 1391 1390 1389 1388 1387 1385 1383 1382 1381 1380 1379 1378 1377 1377 1376 1375 1375 1374 1374 1373 1373 1373 1373 1373 1373 1373 1374 1374 1375 1375 1375 1375 1375 1375 1375 1375
1399 1397 1396 1394 1393 1391 1390 1388 1387 1385 1384 1383 1381 1379 1378 1376 1376 1374 1373 1372 1371 1372 1371 1370 1370 1369 1369 1368 1368 1368 1368 1368 1368 1368 1369 1369 1369 1370 1370 1370 1370 1370 1370 1370
1395 1393 1392 1390 1388 1386 1385 1384 1382 1380 1378 1377 1376 1374 1373 1371 1370 1369 1368 1367 1367 1367 1366 1365 1365 1364 1364 1363 1363 1363 1363 1363 1363 1363 1363 1364 1364 1365 1365 1365 1365 1366 1366 1366
1391 1389 1387 1385 1383 1381 1379 1378 1376 1375 1373 1371 1370 1368 1367 1366 1365 1364 1362 1362 1362 1362 1361 1361 1360 1360 1359 1358 1358 1358 1358 1358 1358 1358 1359 1359 1360 1360 1360 1360 1361 1361 1361 1361
1386 1384 1381 1379 1377 1375 1373 1371 1370 1369 1367 1366 1364 1363 1362 1361 1359 1359 1358 1357 1357 1356 1356 1355 1355 1355 1354 1353 1353 1353 1353 1353 1353 1354 1354 1355 1355 1355 1355 1356 1356 1356 1356 1356
1380 1378 1375 1373 1371 1368 1367 1365 1363 1362 1361 1360 1359 1358 1357 1356 1355 1353 1353 1352 1352 1351 1351 1350 1350 1349 1349 1348 1348 1348 1348 1348 1349 1349 1349 1350 1350 1350 1351 1351 1351 1351 1351 1351
1373 1371 1369 1367 1365 1363 1361 1359 1358 1356 1355 1354 1352 1352 1351 1351 1350 1348 1348 1347 1346 1346 1345 1345 1345 1344 1344 1343 1343 1343 1343 1343 1344 1344 1344 1345 1345 1345 1346 1346 1346 1346 1346 1346
1366 1364 1362 1360 1358 1357 1355 1354 1352 1350 1349 1348 1347 1346 1346 1345 1344 1343 1342 1342 1341 1341 1340 1340 1340 1339 1339 1339 1338 1338 1338 1339 1339 1339 1340 1340 1340 1340 1341 1341 1341 1341 1341 1341